This is the latest recevied weather packets stored in our database for station/object KD0MAC. If no packets are shown the sender has not sent any weather packets the latest 10 day(s).
| Time | Temp. | Humidity | Pressure | Rain* | Wind** | Luminosity | Snow |
|---|---|---|---|---|---|---|---|
| 1777852894 | 27.22° C | 23% | 1007.1 hPa | 0 mm | - | 76 W/m² | - |
| 1777852593 | 27.78° C | 22% | 1007.1 hPa | 0 mm | - | 83 W/m² | - |
| 1777852294 | 28.33° C | 21% | 1007.1 hPa | 0 mm | - | 126 W/m² | - |
| 1777851994 | 27.78° C | 22% | 1007.1 hPa | 0 mm | - | 165 W/m² | - |
| 1777851694 | 27.78° C | 22% | 1007.1 hPa | 0 mm | - | 129 W/m² | - |
| 1777851394 | 27.78° C | 21% | 1007.1 hPa | 0 mm | - | 143 W/m² | - |
| 1777851093 | 28.33° C | 21% | 1007.1 hPa | 0 mm | - | 129 W/m² | - |
| 1777850793 | 28.89° C | 21% | 1007.1 hPa | 0 mm | - | 122 W/m² | - |
| 1777850493 | 28.89° C | 20% | 1007.1 hPa | 0 mm | - | 173 W/m² | - |
| 1777850193 | 29.44° C | 20% | 1007.1 hPa | 0 mm | - | 189 W/m² | - |
| 1777849893 | 29.44° C | 19% | 1007.1 hPa | 0 mm | - | 192 W/m² | - |
| 1777849593 | 29.44° C | 19% | 1007.1 hPa | 0 mm | - | 153 W/m² | - |
| 1777849294 | 30° C | 19% | 1006.8 hPa | 0 mm | - | 206 W/m² | - |
| 1777848993 | 30° C | 19% | 1007.1 hPa | 0 mm | - | 343 W/m² | - |
| 1777848693 | 30° C | 18% | 1006.8 hPa | 0 mm | - | 186 W/m² | - |
| 1777848393 | 30.56° C | 17% | 1007.1 hPa | 0 mm | - | 311 W/m² | - |
| 1777848093 | 30° C | 17% | 1007.1 hPa | 0 mm | - | 267 W/m² | - |
| 1777847794 | 30.56° C | 17% | 1007.1 hPa | 0 mm | - | 165 W/m² | - |
| 1777847494 | 30.56° C | 17% | 1007.1 hPa | 0 mm | - | 220 W/m² | - |
| 1777847194 | 30.56° C | 17% | 1007.5 hPa | 0 mm | - | 264 W/m² | - |
| 1777846894 | 30.56° C | 16% | 1007.1 hPa | 0 mm | - | 231 W/m² | - |
| 1777846594 | 30.56° C | 16% | 1007.5 hPa | 0 mm | - | 347 W/m² | - |
| 1777846294 | 30.56° C | 17% | 1007.5 hPa | 0 mm | - | 337 W/m² | - |
| 1777845994 | 31.11° C | 16% | 1007.5 hPa | 0 mm | - | 336 W/m² | - |
| 1777845693 | 31.67° C | 15% | 1007.5 hPa | 0 mm | - | 234 W/m² | - |
* Rain latest hour (hover to see other rain measurements)
** Current wind speed in m/s (hover to see current wind gust speed)